CPA603 VHHH-VNKT

Flight info

Callsign CPA603
Flight time N/A
Altitude 38000
Route PECAN V10 SIKOU/K0915S1160 A202 ASSAD/K0915F380 A206 NALAO/N0494F380 A206 LPB B465 MDY/N0489F400 B465 CTG G463 ROMEO ROMEO3R
Aircraft A359/H-SDE2E3GHIJ3J4J5LM1ORWXY/LB1D1

Departure

Time 2026-05-05 23:18
Airport Hong Kong International Airport (VHHH)

Arrival

Time N/A
Airport Tribhuvan International Airport (VNKT)
Time Latitude Longitude Altitude Speed Heading
2026-05-05 22:41 22.31361 113.92469 39 ft 0 kts 26°
2026-05-05 23:05 22.31354 113.92465 40 ft 4 kts 26°
2026-05-05 23:05 22.31330 113.92453 40 ft 4 kts 26°
2026-05-05 23:05 22.31310 113.92443 38 ft 3 kts 25°
2026-05-05 23:05 22.31287 113.92437 39 ft 4 kts 337°
2026-05-05 23:06 22.31270 113.92454 41 ft 4 kts 296°
2026-05-05 23:06 22.31259 113.92480 40 ft 3 kts 296°
2026-05-05 23:06 22.31245 113.92502 39 ft 4 kts 319°
2026-05-05 23:06 22.31223 113.92515 20 ft 4 kts 354°
2026-05-05 23:07 22.31197 113.92513 42 ft 4 kts 24°
2026-05-05 23:07 22.31174 113.92501 39 ft 3 kts 26°
2026-05-05 23:07 22.31170 113.92499 39 ft 0 kts 26°
2026-05-05 23:09 22.31187 113.92507 41 ft 8 kts 26°
2026-05-05 23:09 22.31238 113.92507 41 ft 7 kts 323°
2026-05-05 23:09 22.31288 113.92412 41 ft 16 kts 296°
2026-05-05 23:10 22.31322 113.92339 41 ft 17 kts 297°
2026-05-05 23:10 22.31373 113.92228 40 ft 15 kts 295°
2026-05-05 23:10 22.31416 113.92127 40 ft 12 kts 295°
2026-05-05 23:10 22.31483 113.92073 41 ft 13 kts 339°
2026-05-05 23:11 22.31527 113.92006 41 ft 12 kts 257°
2026-05-05 23:11 22.31496 113.91902 42 ft 21 kts 252°
2026-05-05 23:11 22.31439 113.91727 42 ft 26 kts 250°
2026-05-05 23:11 22.31380 113.91542 42 ft 26 kts 251°
2026-05-05 23:12 22.31319 113.91353 42 ft 27 kts 251°
2026-05-05 23:12 22.31261 113.91173 42 ft 24 kts 251°
2026-05-05 23:12 22.31247 113.91130 42 ft 25 kts 250°
2026-05-05 23:14 22.31236 113.91097 42 ft 25 kts 251°
2026-05-05 23:14 22.31179 113.90920 42 ft 26 kts 251°
2026-05-05 23:15 22.31118 113.90734 42 ft 27 kts 250°
2026-05-05 23:15 22.31055 113.90542 42 ft 27 kts 251°
2026-05-05 23:15 22.30992 113.90344 42 ft 28 kts 251°
2026-05-05 23:15 22.30928 113.90144 42 ft 29 kts 251°
2026-05-05 23:16 22.30883 113.90003 42 ft 14 kts 251°
2026-05-05 23:16 22.30853 113.89898 42 ft 15 kts 263°
2026-05-05 23:16 22.30912 113.89816 42 ft 15 kts 339°
2026-05-05 23:16 22.31014 113.89783 42 ft 15 kts 341°
2026-05-05 23:17 22.31088 113.89798 42 ft 11 kts 51°
2026-05-05 23:17 22.31120 113.89877 42 ft 13 kts 69°
2026-05-05 23:17 22.31215 113.90159 42 ft 71 kts 72°
2026-05-05 23:17 22.31441 113.90868 42 ft 127 kts 71°
2026-05-05 23:18 22.31791 113.91934 101 ft 168 kts 70°
2026-05-05 23:18 22.32192 113.93094 802 ft 163 kts 73°
2026-05-05 23:18 22.32557 113.94304 1261 ft 178 kts 77°
2026-05-05 23:18 22.32947 113.95650 1488 ft 201 kts 75°
2026-05-05 23:19 22.33329 113.97143 2015 ft 208 kts 82°
2026-05-05 23:19 22.33598 113.98695 2626 ft 213 kts 84°
2026-05-05 23:19 22.33852 114.00298 3117 ft 221 kts 84°
2026-05-05 23:19 22.34116 114.01976 3597 ft 230 kts 84°
2026-05-05 23:20 22.34269 114.03705 4217 ft 231 kts 95°
2026-05-05 23:20 22.33968 114.05371 4840 ft 230 kts 116°
2026-05-05 23:20 22.33120 114.06832 5397 ft 230 kts 137°
2026-05-05 23:20 22.31848 114.07910 5794 ft 240 kts 155°
2026-05-05 23:21 22.30254 114.08555 6199 ft 248 kts 173°
2026-05-05 23:21 22.28547 114.08711 6776 ft 251 kts 184°
2026-05-05 23:21 22.26738 114.08676 7082 ft 269 kts 186°
2026-05-05 23:21 22.24826 114.08622 7578 ft 278 kts 185°
2026-05-05 23:22 22.22877 114.08584 8272 ft 282 kts 185°
2026-05-05 23:22 22.20906 114.08554 8971 ft 285 kts 185°
2026-05-05 23:22 22.18905 114.08554 9623 ft 291 kts 182°
2026-05-05 23:22 22.16918 114.09018 10146 ft 305 kts 161°
2026-05-05 23:23 22.15133 114.10405 10356 ft 331 kts 135°
2026-05-05 23:23 22.13861 114.12575 10577 ft 352 kts 120°
2026-05-05 23:23 22.12764 114.15009 10814 ft 368 kts 118°
2026-05-05 23:23 22.11670 114.17443 11016 ft 381 kts 119°
2026-05-05 23:24 22.10983 114.18946 11163 ft 389 kts 119°
2026-05-05 23:25 22.09761 114.21585 11537 ft 396 kts 119°
2026-05-05 23:25 22.08490 114.24241 11998 ft 399 kts 122°
2026-05-05 23:25 22.08156 114.24845 12123 ft 399 kts 125°
2026-05-05 23:26 22.06743 114.26723 12536 ft 397 kts 140°
2026-05-05 23:26 22.04596 114.28606 12978 ft 399 kts 147°
2026-05-05 23:26 22.02332 114.30378 13424 ft 402 kts 148°
2026-05-05 23:26 22.00026 114.32104 13911 ft 403 kts 152°
2026-05-05 23:27 21.97510 114.33315 14319 ft 399 kts 169°
2026-05-05 23:27 21.94763 114.33622 14692 ft 395 kts 188°
2026-05-05 23:27 21.92092 114.32963 15071 ft 392 kts 206°
2026-05-05 23:27 21.89780 114.31444 15447 ft 389 kts 224°
2026-05-05 23:28 21.87973 114.29286 15814 ft 389 kts 234°
2026-05-05 23:28 21.86126 114.27173 16109 ft 395 kts 225°
2026-05-05 23:28 21.84002 114.25259 16477 ft 399 kts 222°
2026-05-05 23:28 21.81816 114.23381 16834 ft 402 kts 221°
2026-05-05 23:29 21.79637 114.21525 17187 ft 405 kts 221°
2026-05-05 23:29 21.77411 114.19632 17545 ft 407 kts 221°
2026-05-05 23:29 21.75177 114.17733 17889 ft 411 kts 221°
2026-05-05 23:29 21.72924 114.15819 18246 ft 413 kts 222°
2026-05-05 23:30 21.70681 114.13914 18535 ft 416 kts 221°
2026-05-05 23:30 21.68400 114.11977 18830 ft 418 kts 221°
2026-05-05 23:30 21.66072 114.10062 19093 ft 422 kts 218°
2026-05-05 23:30 21.63459 114.08572 19359 ft 429 kts 204°
2026-05-05 23:31 21.60584 114.07663 19719 ft 432 kts 198°
2026-05-05 23:31 21.57658 114.06904 20025 ft 434 kts 197°
2026-05-05 23:31 21.54706 114.06155 20323 ft 436 kts 197°
2026-05-05 23:31 21.51777 114.05408 20619 ft 439 kts 197°
2026-05-05 23:32 21.48795 114.04643 20931 ft 441 kts 197°
2026-05-05 23:32 21.45817 114.03832 21268 ft 441 kts 200°
2026-05-05 23:32 21.42968 114.02612 21589 ft 439 kts 211°
2026-05-05 23:32 21.40301 114.00979 21880 ft 441 kts 216°
2026-05-05 23:33 21.37721 113.99182 22200 ft 442 kts 218°
2026-05-05 23:33 21.35173 113.97314 22535 ft 444 kts 218°
2026-05-05 23:33 21.32659 113.95451 22873 ft 446 kts 218°
2026-05-05 23:33 21.30088 113.93563 23197 ft 448 kts 218°
2026-05-05 23:34 21.27498 113.91689 23580 ft 448 kts 218°
2026-05-05 23:34 21.24890 113.89824 23859 ft 451 kts 218°
2026-05-05 23:34 21.22261 113.87959 24110 ft 453 kts 217°
2026-05-05 23:34 21.19655 113.86119 24368 ft 455 kts 217°
2026-05-05 23:35 21.17006 113.84254 24662 ft 457 kts 217°
2026-05-05 23:35 21.14351 113.82374 24964 ft 458 kts 218°
2026-05-05 23:35 21.11841 113.80258 25292 ft 457 kts 226°
2026-05-05 23:35 21.09666 113.77789 25612 ft 456 kts 235°
2026-05-05 23:36 21.07911 113.74963 25921 ft 455 kts 245°
2026-05-05 23:36 21.06606 113.71877 26241 ft 455 kts 251°
2026-05-05 23:36 21.05501 113.68732 26569 ft 457 kts 253°
2026-05-05 23:36 21.04460 113.65504 26922 ft 459 kts 254°
2026-05-05 23:37 21.03446 113.62251 27293 ft 460 kts 255°
2026-05-05 23:37 21.02431 113.58983 27644 ft 463 kts 255°
2026-05-05 23:37 21.01401 113.55706 27978 ft 465 kts 254°
2026-05-05 23:37 21.00355 113.52420 28298 ft 468 kts 254°
2026-05-05 23:38 20.99290 113.49113 28629 ft 470 kts 254°
2026-05-05 23:38 20.98228 113.45836 28937 ft 472 kts 254°
2026-05-05 23:38 20.97145 113.42508 29238 ft 475 kts 254°
2026-05-05 23:38 20.96054 113.39160 29565 ft 476 kts 254°
2026-05-05 23:39 20.94959 113.35804 29844 ft 478 kts 254°
2026-05-05 23:39 20.93857 113.32427 30090 ft 481 kts 254°
2026-05-05 23:39 20.92751 113.29041 30335 ft 482 kts 254°
2026-05-05 23:39 20.91644 113.25651 30586 ft 483 kts 254°
2026-05-05 23:40 20.90547 113.22296 30816 ft 485 kts 254°
2026-05-05 23:40 20.89430 113.18882 31083 ft 485 kts 254°
2026-05-05 23:40 20.88318 113.15487 31462 ft 482 kts 254°
2026-05-05 23:40 20.87209 113.12100 31837 ft 480 kts 254°
2026-05-05 23:41 20.86108 113.08735 32192 ft 478 kts 254°
2026-05-05 23:41 20.85011 113.05384 32543 ft 477 kts 254°
2026-05-05 23:41 20.83931 113.02088 32880 ft 475 kts 254°
2026-05-05 23:41 20.82841 112.98762 33163 ft 474 kts 254°
2026-05-05 23:42 20.81748 112.95428 33312 ft 476 kts 254°
2026-05-05 23:42 20.80652 112.92087 33542 ft 476 kts 254°
2026-05-05 23:42 20.79554 112.88748 33851 ft 474 kts 254°
2026-05-05 23:42 20.78461 112.85429 34121 ft 473 kts 254°
2026-05-05 23:43 20.77367 112.82110 34330 ft 473 kts 254°
2026-05-05 23:43 20.76274 112.78791 34517 ft 473 kts 254°
2026-05-05 23:43 20.75179 112.75469 34699 ft 473 kts 254°
2026-05-05 23:43 20.74084 112.72151 34893 ft 473 kts 254°
2026-05-05 23:44 20.73000 112.68872 35078 ft 473 kts 254°
2026-05-05 23:44 20.71904 112.65561 35283 ft 472 kts 254°
2026-05-05 23:44 20.70807 112.62250 35472 ft 472 kts 254°
2026-05-05 23:44 20.69710 112.58941 35656 ft 472 kts 254°
2026-05-05 23:45 20.68610 112.55630 35830 ft 472 kts 254°
2026-05-05 23:45 20.67513 112.52327 36001 ft 471 kts 254°
2026-05-05 23:45 20.66417 112.49030 36174 ft 471 kts 254°
2026-05-05 23:45 20.65333 112.45773 36336 ft 471 kts 254°
2026-05-05 23:46 20.64238 112.42484 36541 ft 470 kts 254°
2026-05-05 23:46 20.63140 112.39187 36736 ft 469 kts 254°
2026-05-05 23:46 20.62046 112.35907 36904 ft 469 kts 254°
2026-05-05 23:46 20.60951 112.32624 37046 ft 469 kts 254°
2026-05-05 23:47 20.60018 112.29298 37242 ft 466 kts 261°
2026-05-05 23:47 20.59408 112.25907 37367 ft 465 kts 264°
2026-05-05 23:47 20.58913 112.22497 37472 ft 465 kts 265°